This is the latest recevied weather packets stored in our database for station/object PA3EUZ. If no packets are shown the sender has not sent any weather packets the latest 10 day(s).
| Time | Temp. | Humidity | Pressure | Rain* | Wind** | Luminosity | Snow |
|---|---|---|---|---|---|---|---|
| 1777761018 | 14.44° C | 92% | 1012 hPa | 0.25 mm | - | 0 W/m² | - |
| 1777757417 | 14.44° C | 92% | 1012.7 hPa | 0 mm | - | 0 W/m² | - |
| 1777755616 | 14.44° C | 91% | 1012.3 hPa | 2.29 mm | - | 0 W/m² | - |
| 1777754716 | 14.44° C | 91% | 1012.7 hPa | 3.3 mm | - | 0 W/m² | - |
| 1777751116 | 18.33° C | 80% | 1014.3 hPa | 1.02 mm | - | 0 W/m² | - |
| 1777748416 | 20.56° C | 61% | 1013.2 hPa | 0 mm | - | 1 W/m² | - |
| 1777739418 | 24.44° C | 55% | 1013.8 hPa | 0 mm | - | 287 W/m² | - |
| 1777737618 | 24.44° C | 55% | 1014.3 hPa | 0 mm | - | 429 W/m² | - |
| 1777733138 | 25° C | 57% | 1015.3 hPa | 0 mm | - | 569 W/m² | - |
| 1777732218 | 24.44° C | 57% | 1015.6 hPa | 0 mm | - | 656 W/m² | - |
| 1777719618 | 21.11° C | 69% | 1018 hPa | 0 mm | - | 566 W/m² | - |
| 1777708818 | 16.11° C | 87% | 1018.7 hPa | 0 mm | - | 194 W/m² | - |
| 1777705218 | 13.89° C | 91% | 1018.7 hPa | 0 mm | - | 156 W/m² | - |
| 1777704318 | 13.33° C | 91% | 1018.6 hPa | 0 mm | - | 102 W/m² | - |
| 1777702518 | 13.33° C | 90% | 1018.6 hPa | 0 mm | - | 24 W/m² | - |
| 1777699818 | 12.22° C | 88% | 1018.4 hPa | 0.25 mm | - | 6 W/m² | - |
| 1777695318 | 11.67° C | 71% | 1018.8 hPa | 0 mm | - | 0 W/m² | - |
| 1777694418 | 11.67° C | 68% | 1018.7 hPa | 0 mm | - | 0 W/m² | - |
| 1777686318 | 11.67° C | 67% | 1018.8 hPa | 0 mm | - | 0 W/m² | - |
| 1777684518 | 11.67° C | 66% | 1018.8 hPa | 0 mm | - | 0 W/m² | - |
| 1777680917 | 11.11° C | 66% | 1019.4 hPa | 0 mm | - | 0 W/m² | - |
| 1777676438 | 11.67° C | 63% | 1019.8 hPa | 0 mm | - | 0 W/m² | - |
| 1777671916 | 13.89° C | 56% | 1020.1 hPa | 0 mm | - | 0 W/m² | - |
| 1777668316 | 16.11° C | 47% | 1020.2 hPa | 0 mm | - | 0 W/m² | - |
| 1777662918 | 19.44° C | 39% | 1020.1 hPa | 0 mm | - | 0 W/m² | - |
* Rain latest hour (hover to see other rain measurements)
** Current wind speed in m/s (hover to see current wind gust speed)